This is the latest recevied weather packets stored in our database for station/object AA0PB. If no packets are shown the sender has not sent any weather packets the latest 10 day(s).
| Time | Temp. | Humidity | Pressure | Rain* | Wind** | Luminosity | Snow |
|---|---|---|---|---|---|---|---|
| 1777877216 | 18.33° C | 67% | 1009 hPa | 0 mm | - | 0 W/m² | - |
| 1777876913 | 18.89° C | 67% | 1009.3 hPa | 0 mm | - | 0 W/m² | - |
| 1777876611 | 18.89° C | 66% | 1009 hPa | 0 mm | - | 0 W/m² | - |
| 1777876309 | 18.89° C | 66% | 1009.1 hPa | 0 mm | - | 0 W/m² | - |
| 1777876004 | 18.89° C | 67% | 1008.9 hPa | 0 mm | - | 0 W/m² | - |
| 1777875700 | 18.89° C | 66% | 1009.3 hPa | 0 mm | - | 0 W/m² | - |
| 1777875397 | 18.89° C | 66% | 1008.9 hPa | 0 mm | - | 0 W/m² | - |
| 1777875094 | 19.44° C | 66% | 1009 hPa | 0 mm | - | 0 W/m² | - |
| 1777874791 | 19.44° C | 66% | 1008.8 hPa | 0 mm | - | 0 W/m² | - |
| 1777874486 | 19.44° C | 65% | 1008.9 hPa | 0 mm | - | 0 W/m² | - |
| 1777874184 | 19.44° C | 64% | 1009 hPa | 0 mm | - | 0 W/m² | - |
| 1777873881 | 20° C | 63% | 1008.9 hPa | 0 mm | - | 0 W/m² | - |
| 1777873578 | 20° C | 62% | 1008.9 hPa | 0 mm | - | 0 W/m² | - |
| 1777873275 | 20° C | 62% | 1009.2 hPa | 0 mm | - | 0 W/m² | - |
| 1777872972 | 20° C | 61% | 1009 hPa | 0 mm | - | 0 W/m² | - |
| 1777872669 | 20.56° C | 60% | 1009.1 hPa | 0 mm | - | 0 W/m² | - |
| 1777872366 | 20.56° C | 59% | 1009 hPa | 0 mm | - | 0 W/m² | - |
| 1777872064 | 21.11° C | 58% | 1009 hPa | 0 mm | - | 0 W/m² | - |
| 1777871761 | 20.56° C | 59% | 1008.8 hPa | 0 mm | - | 0 W/m² | - |
| 1777871457 | 21.11° C | 58% | 1008.8 hPa | 0 mm | - | 0 W/m² | - |
| 1777871154 | 21.67° C | 55% | 1008.9 hPa | 0 mm | - | 0 W/m² | - |
| 1777870851 | 21.67° C | 54% | 1008.7 hPa | 0 mm | - | 0 W/m² | - |
| 1777870548 | 22.22° C | 53% | 1008.7 hPa | 0 mm | - | 0 W/m² | - |
| 1777870243 | 22.22° C | 53% | 1008.7 hPa | 0 mm | - | 0 W/m² | - |
| 1777869941 | 22.78° C | 52% | 1008.9 hPa | 0 mm | - | 0 W/m² | - |
* Rain latest hour (hover to see other rain measurements)
** Current wind speed in m/s (hover to see current wind gust speed)